Year,Month,Day,Hour,Minute,Value (Times are PST for temperature in C)
2014,07,25,11,36,19.30
2014,07,25,11,37,19.40
2014,07,25,11,38,19.50
2014,07,25,11,39,19.50
2014,07,25,11,40,19.50
2014,07,25,11,41,19.60
2014,07,25,11,42,19.60
2014,07,25,11,43,19.70
2014,07,25,11,44,19.70
2014,07,25,11,45,19.70
2014,07,25,11,46,19.60
2014,07,25,11,47,19.60
2014,07,25,11,48,19.60
2014,07,25,11,49,19.50
2014,07,25,11,50,19.40
2014,07,25,11,51,19.30
2014,07,25,11,52,19.30
2014,07,25,11,53,19.30
2014,07,25,11,54,19.30
2014,07,25,11,55,19.20
2014,07,25,11,56,19.10
2014,07,25,11,57,19.10
2014,07,25,11,58,19.10
2014,07,25,11,59,19.10
2014,07,25,12,00,19.10
2014,07,25,12,01,18.90
2014,07,25,12,02,18.90
2014,07,25,12,03,18.90
2014,07,25,12,04,18.80
2014,07,25,12,05,18.80
2014,07,25,12,06,18.90
2014,07,25,12,07,18.90
2014,07,25,12,08,18.90
2014,07,25,12,09,18.90
2014,07,25,12,10,18.90
2014,07,25,12,11,18.90
2014,07,25,12,12,18.90
2014,07,25,12,13,18.90
2014,07,25,12,14,19.00
2014,07,25,12,15,19.10
2014,07,25,12,16,19.10
2014,07,25,12,17,19.10
2014,07,25,12,18,19.20
2014,07,25,12,19,19.30
2014,07,25,12,20,19.30
2014,07,25,12,21,19.40
2014,07,25,12,22,19.40
2014,07,25,12,23,19.50
2014,07,25,12,24,19.50
2014,07,25,12,25,19.50
2014,07,25,12,26,19.50
2014,07,25,12,27,19.50
2014,07,25,12,28,19.40
2014,07,25,12,29,19.40
2014,07,25,12,30,19.30
2014,07,25,12,31,19.20
2014,07,25,12,32,19.20
2014,07,25,12,33,19.20
2014,07,25,12,34,19.20
2014,07,25,12,35,19.10
2014,07,25,12,36,19.10
2014,07,25,12,37,19.10
2014,07,25,12,38,18.90
2014,07,25,12,39,18.90
2014,07,25,12,40,18.90
2014,07,25,12,41,18.80
2014,07,25,12,42,18.70
2014,07,25,12,43,18.50
2014,07,25,12,44,18.40
2014,07,25,12,45,18.30
2014,07,25,12,46,18.20
2014,07,25,12,47,18.20
2014,07,25,12,48,18.10
2014,07,25,12,49,18.00
2014,07,25,12,50,18.00
2014,07,25,12,51,18.10
2014,07,25,12,52,18.00
2014,07,25,12,53,17.90
2014,07,25,12,54,17.90
2014,07,25,12,55,17.80
2014,07,25,12,56,17.70
2014,07,25,12,57,17.70
2014,07,25,12,58,17.80
2014,07,25,12,59,17.90
2014,07,25,13,00,18.10
2014,07,25,13,01,18.10
2014,07,25,13,02,18.00
2014,07,25,13,03,17.90
2014,07,25,13,04,17.90
2014,07,25,13,05,17.90
2014,07,25,13,06,18.10
2014,07,25,13,07,18.10
2014,07,25,13,08,18.00
2014,07,25,13,09,17.90
2014,07,25,13,10,17.90
2014,07,25,13,11,17.80
2014,07,25,13,12,17.80
2014,07,25,13,13,17.90
2014,07,25,13,14,17.90
2014,07,25,13,15,18.00
2014,07,25,13,16,18.10
2014,07,25,13,17,18.10
2014,07,25,13,18,18.10
2014,07,25,13,19,18.20
2014,07,25,13,20,18.30
2014,07,25,13,21,18.40
2014,07,25,13,22,18.40
2014,07,25,13,23,18.40
2014,07,25,13,24,18.40
2014,07,25,13,25,18.40
2014,07,25,13,26,18.40
2014,07,25,13,27,18.40
2014,07,25,13,28,18.30
2014,07,25,13,29,18.20
2014,07,25,13,30,18.10
2014,07,25,13,31,18.10
2014,07,25,13,32,18.20
2014,07,25,13,33,18.20
2014,07,25,13,34,18.40
2014,07,25,13,35,18.50
2014,07,25,13,36,18.50
2014,07,25,13,37,18.50
2014,07,25,13,38,18.50
2014,07,25,13,39,18.50
2014,07,25,13,40,18.50
2014,07,25,13,41,18.50
2014,07,25,13,42,18.60
2014,07,25,13,43,18.70
2014,07,25,13,44,18.80
2014,07,25,13,45,18.70
2014,07,25,13,46,18.80
2014,07,25,13,47,18.80
2014,07,25,13,48,18.80
2014,07,25,13,49,18.80
2014,07,25,13,50,18.80
2014,07,25,13,51,18.90
2014,07,25,13,52,18.90
2014,07,25,13,53,19.00
2014,07,25,13,54,19.10
2014,07,25,13,55,19.20
2014,07,25,13,56,19.20
2014,07,25,13,57,19.30
2014,07,25,13,58,19.30
2014,07,25,13,59,19.30
2014,07,25,14,00,19.30
2014,07,25,14,01,19.40
2014,07,25,14,02,19.40
2014,07,25,14,03,19.50
2014,07,25,14,04,19.50
2014,07,25,14,05,19.50
2014,07,25,14,06,19.60
2014,07,25,14,07,19.60
2014,07,25,14,08,19.50
2014,07,25,14,09,19.50
2014,07,25,14,10,19.40
2014,07,25,14,11,19.30
2014,07,25,14,12,19.30
2014,07,25,14,13,19.30
2014,07,25,14,14,19.30
2014,07,25,14,15,19.40
2014,07,25,14,16,19.40
2014,07,25,14,17,19.50
2014,07,25,14,18,19.60
2014,07,25,14,19,19.70
2014,07,25,14,20,19.80
2014,07,25,14,21,19.90
2014,07,25,14,22,19.90
2014,07,25,14,23,19.90
2014,07,25,14,24,19.90
2014,07,25,14,25,19.90
2014,07,25,14,26,19.90
2014,07,25,14,27,20.00
2014,07,25,14,28,20.10
2014,07,25,14,29,20.20
2014,07,25,14,30,20.20
2014,07,25,14,31,20.20
2014,07,25,14,32,20.30
2014,07,25,14,33,20.30
2014,07,25,14,34,20.30
2014,07,25,14,35,20.30
2014,07,25,14,36,20.30
2014,07,25,14,37,20.30
2014,07,25,14,38,20.30
2014,07,25,14,39,20.30
2014,07,25,14,40,20.30
2014,07,25,14,41,20.30
2014,07,25,14,42,20.30
2014,07,25,14,43,20.20
2014,07,25,14,44,19.90
2014,07,25,14,45,19.80
2014,07,25,14,46,19.60
2014,07,25,14,47,19.50
2014,07,25,14,48,19.50
2014,07,25,14,49,19.60
2014,07,25,14,50,19.60
2014,07,25,14,51,19.70
2014,07,25,14,52,19.70
2014,07,25,14,53,19.80
2014,07,25,14,54,19.80
2014,07,25,14,55,19.80
2014,07,25,14,56,19.90
2014,07,25,14,57,20.10
2014,07,25,14,58,20.20
2014,07,25,14,59,20.30
2014,07,25,15,00,20.40
2014,07,25,15,01,20.50
2014,07,25,15,02,20.50
2014,07,25,15,03,20.60
2014,07,25,15,04,20.60
2014,07,25,15,05,20.60
2014,07,25,15,06,20.60
2014,07,25,15,07,20.60
2014,07,25,15,08,20.60
2014,07,25,15,09,20.60
2014,07,25,15,10,20.60
2014,07,25,15,11,20.60
2014,07,25,15,12,20.60
2014,07,25,15,13,20.70
2014,07,25,15,14,20.70
2014,07,25,15,15,20.70
2014,07,25,15,16,20.60
2014,07,25,15,17,20.50
2014,07,25,15,18,20.40
2014,07,25,15,19,20.30
2014,07,25,15,20,20.20
2014,07,25,15,21,20.20
2014,07,25,15,22,20.20
2014,07,25,15,23,20.20
2014,07,25,15,24,20.10
2014,07,25,15,25,20.00
2014,07,25,15,26,19.90
2014,07,25,15,27,19.80
2014,07,25,15,28,19.90
2014,07,25,15,29,19.90
2014,07,25,15,30,20.00
2014,07,25,15,31,20.20
2014,07,25,15,32,20.30
2014,07,25,15,33,20.30
2014,07,25,15,34,20.20
2014,07,25,15,35,20.10
2014,07,25,15,36,19.90
2014,07,25,15,37,19.90
2014,07,25,15,38,19.90
2014,07,25,15,39,19.90
2014,07,25,15,40,19.70
2014,07,25,15,41,19.70
2014,07,25,15,42,19.60
2014,07,25,15,43,19.70
2014,07,25,15,44,19.80
2014,07,25,15,45,19.90
2014,07,25,15,46,20.00
2014,07,25,15,47,20.10
2014,07,25,15,48,20.20
2014,07,25,15,49,20.30
2014,07,25,15,50,20.40
2014,07,25,15,51,20.50
2014,07,25,15,52,20.70
2014,07,25,15,53,20.80
2014,07,25,15,54,20.90
2014,07,25,15,55,21.00
2014,07,25,15,56,21.10
2014,07,25,15,57,21.20
2014,07,25,15,58,21.30
2014,07,25,15,59,21.30
2014,07,25,16,00,21.30
2014,07,25,16,01,21.30
2014,07,25,16,02,21.30
2014,07,25,16,03,21.40
2014,07,25,16,04,21.40
2014,07,25,16,05,21.30
2014,07,25,16,06,21.30
2014,07,25,16,07,21.30
2014,07,25,16,08,21.40
2014,07,25,16,09,21.40
2014,07,25,16,10,21.30
2014,07,25,16,11,21.20
2014,07,25,16,12,21.10
2014,07,25,16,13,21.10
2014,07,25,16,14,21.10
2014,07,25,16,15,21.20
2014,07,25,16,16,21.30
2014,07,25,16,17,21.30
2014,07,25,16,18,21.20
2014,07,25,16,19,21.00
2014,07,25,16,20,20.90
2014,07,25,16,21,20.80
2014,07,25,16,22,20.70
2014,07,25,16,23,20.60
2014,07,25,16,24,20.50
2014,07,25,16,25,20.50
2014,07,25,16,26,20.50
2014,07,25,16,27,20.50
2014,07,25,16,28,20.60
2014,07,25,16,29,20.60
2014,07,25,16,30,20.60
2014,07,25,16,31,20.70
2014,07,25,16,32,20.70
2014,07,25,16,33,20.70
2014,07,25,16,34,20.50
2014,07,25,16,35,20.40
2014,07,25,16,36,20.20
2014,07,25,16,37,20.20
2014,07,25,16,38,20.20
2014,07,25,16,39,20.20
2014,07,25,16,40,20.20
2014,07,25,16,41,20.30
2014,07,25,16,42,20.40
2014,07,25,16,43,20.50
2014,07,25,16,44,20.60
2014,07,25,16,45,20.60
2014,07,25,16,46,20.60
2014,07,25,16,47,20.60
2014,07,25,16,48,20.60
2014,07,25,16,49,20.60
2014,07,25,16,50,20.60
2014,07,25,16,51,20.60
2014,07,25,16,52,20.50
2014,07,25,16,53,20.50
2014,07,25,16,54,20.50
2014,07,25,16,55,20.50
2014,07,25,16,56,20.60
2014,07,25,16,57,20.70
2014,07,25,16,58,20.70
2014,07,25,16,59,20.80
2014,07,25,17,00,20.80
2014,07,25,17,01,20.70
2014,07,25,17,02,20.70
2014,07,25,17,03,20.60
2014,07,25,17,04,20.70
2014,07,25,17,05,20.70
2014,07,25,17,06,20.70
2014,07,25,17,07,20.60
2014,07,25,17,08,20.50
2014,07,25,17,09,20.40
2014,07,25,17,10,20.40
2014,07,25,17,11,20.40
2014,07,25,17,12,20.40
2014,07,25,17,13,20.40
2014,07,25,17,14,20.40
2014,07,25,17,15,20.40
2014,07,25,17,16,20.30
2014,07,25,17,17,20.40
2014,07,25,17,18,20.40
2014,07,25,17,19,20.40
2014,07,25,17,20,20.30
2014,07,25,17,21,20.20
2014,07,25,17,22,20.20
2014,07,25,17,23,20.20
2014,07,25,17,24,20.20
2014,07,25,17,25,20.20
2014,07,25,17,26,20.30
2014,07,25,17,27,20.40
2014,07,25,17,28,20.40
2014,07,25,17,29,20.50
2014,07,25,17,30,20.50
2014,07,25,17,31,20.60
2014,07,25,17,32,20.60
2014,07,25,17,33,20.70
2014,07,25,17,34,20.70
2014,07,25,17,35,20.70
2014,07,25,17,36,20.70
2014,07,25,17,37,20.60
2014,07,25,17,38,20.60
2014,07,25,17,39,20.60
2014,07,25,17,40,20.70
2014,07,25,17,41,20.70
2014,07,25,17,42,20.70
2014,07,25,17,43,20.70
2014,07,25,17,44,20.70
2014,07,25,17,45,20.70
2014,07,25,17,46,20.70
2014,07,25,17,47,20.70
2014,07,25,17,48,20.70
2014,07,25,17,49,20.70
2014,07,25,17,50,20.70
2014,07,25,17,51,20.70
2014,07,25,17,52,20.80
2014,07,25,17,53,20.80
2014,07,25,17,54,20.80
2014,07,25,17,55,20.90
2014,07,25,17,56,20.90
2014,07,25,17,57,21.00
2014,07,25,17,58,21.00
2014,07,25,17,59,20.90
2014,07,25,18,00,20.80
2014,07,25,18,01,20.70
2014,07,25,18,02,20.70
2014,07,25,18,03,20.60
2014,07,25,18,04,20.50
2014,07,25,18,05,20.50
2014,07,25,18,06,20.40
2014,07,25,18,07,20.40
2014,07,25,18,08,20.40
2014,07,25,18,09,20.40
2014,07,25,18,10,20.40
2014,07,25,18,11,20.40
2014,07,25,18,12,20.50
2014,07,25,18,13,20.50
2014,07,25,18,14,20.50
2014,07,25,18,15,20.50
2014,07,25,18,16,20.50
2014,07,25,18,17,20.50
2014,07,25,18,18,20.60
2014,07,25,18,19,20.50
2014,07,25,18,20,20.50
2014,07,25,18,21,20.60
2014,07,25,18,22,20.60
2014,07,25,18,23,20.60
2014,07,25,18,24,20.70
2014,07,25,18,25,20.80
2014,07,25,18,26,20.80
2014,07,25,18,27,20.90
2014,07,25,18,28,20.90
2014,07,25,18,29,20.90
2014,07,25,18,30,21.00
2014,07,25,18,31,21.00
2014,07,25,18,32,21.00
2014,07,25,18,33,21.00
2014,07,25,18,34,21.00
2014,07,25,18,35,21.00
2014,07,25,18,36,21.00
2014,07,25,18,37,21.10
2014,07,25,18,38,21.10
2014,07,25,18,39,21.10
2014,07,25,18,40,21.10
2014,07,25,18,41,21.10
2014,07,25,18,42,21.00
2014,07,25,18,43,21.00
2014,07,25,18,44,21.00
2014,07,25,18,45,21.00
2014,07,25,18,46,21.00
2014,07,25,18,47,21.10
2014,07,25,18,48,21.10
2014,07,25,18,49,21.20
2014,07,25,18,50,21.30
2014,07,25,18,51,21.30
2014,07,25,18,52,21.30
2014,07,25,18,53,21.30
2014,07,25,18,54,21.30
2014,07,25,18,55,21.30
2014,07,25,18,56,21.30
2014,07,25,18,57,21.40
2014,07,25,18,58,21.40
2014,07,25,18,59,21.40
2014,07,25,19,00,21.40
2014,07,25,19,01,21.40
2014,07,25,19,02,21.40
2014,07,25,19,03,21.40
2014,07,25,19,04,21.40
2014,07,25,19,05,21.40
2014,07,25,19,06,21.40
2014,07,25,19,07,21.40
2014,07,25,19,08,21.50
2014,07,25,19,09,21.60
2014,07,25,19,10,21.60
2014,07,25,19,11,21.60
2014,07,25,19,12,21.60
2014,07,25,19,13,21.60
2014,07,25,19,14,21.60
2014,07,25,19,15,21.60
2014,07,25,19,16,21.60
2014,07,25,19,17,21.40
2014,07,25,19,18,21.40
2014,07,25,19,19,21.30
2014,07,25,19,20,21.30
2014,07,25,19,21,21.30
2014,07,25,19,22,21.30
2014,07,25,19,23,21.30
2014,07,25,19,24,21.30
2014,07,25,19,25,21.30
2014,07,25,19,26,21.30
2014,07,25,19,27,21.30
2014,07,25,19,28,21.30
2014,07,25,19,29,21.30
2014,07,25,19,30,21.30
2014,07,25,19,31,21.30
2014,07,25,19,32,21.30
2014,07,25,19,33,21.30
2014,07,25,19,34,21.30
2014,07,25,19,35,21.30
2014,07,25,19,36,21.30
2014,07,25,19,37,21.30
2014,07,25,19,38,21.30
2014,07,25,19,39,21.30
2014,07,25,19,40,21.30
2014,07,25,19,41,21.30
2014,07,25,19,42,21.30
2014,07,25,19,43,21.30
2014,07,25,19,44,21.40
2014,07,25,19,45,21.40
2014,07,25,19,46,21.40
2014,07,25,19,47,21.40
2014,07,25,19,48,21.40
2014,07,25,19,49,21.40
2014,07,25,19,50,21.40
2014,07,25,19,51,21.60
2014,07,25,19,52,21.60
2014,07,25,19,53,21.60
2014,07,25,19,54,21.60
2014,07,25,19,55,21.60
2014,07,25,19,56,21.40
2014,07,25,19,57,21.40
2014,07,25,19,58,21.30
2014,07,25,19,59,21.30
2014,07,25,20,00,21.20
2014,07,25,20,01,21.10
2014,07,25,20,02,21.10
2014,07,25,20,03,21.10
2014,07,25,20,04,21.00
2014,07,25,20,05,21.00
2014,07,25,20,06,20.90
2014,07,25,20,07,20.90
2014,07,25,20,08,20.80
2014,07,25,20,09,20.80
2014,07,25,20,10,20.80
2014,07,25,20,11,20.80
2014,07,25,20,12,20.80
2014,07,25,20,13,20.80
2014,07,25,20,14,20.80
2014,07,25,20,15,20.80
2014,07,25,20,16,20.70
2014,07,25,20,17,20.60
2014,07,25,20,18,20.60
2014,07,25,20,19,20.60
2014,07,25,20,20,20.60
2014,07,25,20,21,20.50
2014,07,25,20,22,20.50
2014,07,25,20,23,20.50
2014,07,25,20,24,20.50
2014,07,25,20,25,20.50
2014,07,25,20,26,20.50
2014,07,25,20,27,20.40
2014,07,25,20,28,20.40
2014,07,25,20,29,20.40
2014,07,25,20,30,20.40
2014,07,25,20,31,20.30
2014,07,25,20,32,20.20
2014,07,25,20,33,20.20
2014,07,25,20,34,20.10
2014,07,25,20,35,20.00
2014,07,25,20,36,19.90
2014,07,25,20,37,19.80
2014,07,25,20,38,19.70
2014,07,25,20,39,19.70
2014,07,25,20,40,19.60
2014,07,25,20,41,19.60
2014,07,25,20,42,19.60
2014,07,25,20,43,19.50
2014,07,25,20,44,19.50
2014,07,25,20,45,19.40
2014,07,25,20,46,19.40
2014,07,25,20,47,19.30
2014,07,25,20,48,19.30
2014,07,25,20,49,19.20
2014,07,25,20,50,19.20
2014,07,25,20,51,19.10
2014,07,25,20,52,19.10
2014,07,25,20,53,19.10
2014,07,25,20,54,19.10
2014,07,25,20,55,19.00
2014,07,25,20,56,18.90
2014,07,25,20,57,18.90
2014,07,25,20,58,18.90
2014,07,25,20,59,18.80
2014,07,25,21,00,18.80
2014,07,25,21,01,18.70
2014,07,25,21,02,18.70
2014,07,25,21,03,18.60
2014,07,25,21,04,18.60
2014,07,25,21,05,18.60
2014,07,25,21,06,18.50
2014,07,25,21,07,18.50
2014,07,25,21,08,18.40
2014,07,25,21,09,18.40
2014,07,25,21,10,18.40
2014,07,25,21,11,18.30
2014,07,25,21,12,18.30
2014,07,25,21,13,18.20
2014,07,25,21,14,18.20
2014,07,25,21,15,18.20
2014,07,25,21,16,18.20
2014,07,25,21,17,18.20
2014,07,25,21,18,18.10
2014,07,25,21,19,18.10
2014,07,25,21,20,18.10
2014,07,25,21,21,18.10
2014,07,25,21,22,18.00
2014,07,25,21,23,17.90
2014,07,25,21,24,17.90
2014,07,25,21,25,17.90
2014,07,25,21,26,17.90
2014,07,25,21,27,17.80
2014,07,25,21,28,17.80
2014,07,25,21,29,17.80
2014,07,25,21,30,17.70
2014,07,25,21,31,17.70
2014,07,25,21,32,17.60
2014,07,25,21,33,17.60
2014,07,25,21,34,17.50
2014,07,25,21,35,17.50
2014,07,25,21,36,17.50
2014,07,25,21,37,17.40
2014,07,25,21,38,17.40
2014,07,25,21,39,17.40
2014,07,25,21,40,17.40
2014,07,25,21,41,17.40
2014,07,25,21,42,17.40
2014,07,25,21,43,17.40
2014,07,25,21,44,17.40
2014,07,25,21,45,17.30
2014,07,25,21,46,17.30
2014,07,25,21,47,17.30
2014,07,25,21,48,17.30
2014,07,25,21,49,17.30
2014,07,25,21,50,17.30
2014,07,25,21,51,17.20
2014,07,25,21,52,17.20
2014,07,25,21,53,17.10
2014,07,25,21,54,17.10
2014,07,25,21,55,17.10
2014,07,25,21,56,17.10
2014,07,25,21,57,17.10
2014,07,25,21,58,17.10
2014,07,25,21,59,17.00
2014,07,25,22,00,17.00
2014,07,25,22,01,17.00
2014,07,25,22,02,17.00
2014,07,25,22,03,16.90
2014,07,25,22,04,16.90
2014,07,25,22,05,16.90
2014,07,25,22,06,16.90
2014,07,25,22,07,16.80
2014,07,25,22,08,16.80
2014,07,25,22,09,16.80
2014,07,25,22,10,16.80
2014,07,25,22,11,16.70
2014,07,25,22,12,16.70
2014,07,25,22,13,16.70
2014,07,25,22,14,16.70
2014,07,25,22,15,16.70
2014,07,25,22,16,16.70
2014,07,25,22,17,16.70
2014,07,25,22,18,16.70
2014,07,25,22,19,16.70
2014,07,25,22,20,16.70
2014,07,25,22,21,16.70
2014,07,25,22,22,16.70
2014,07,25,22,23,16.70
2014,07,25,22,24,16.70
2014,07,25,22,25,16.70
2014,07,25,22,26,16.70
2014,07,25,22,27,16.60
2014,07,25,22,28,16.60
2014,07,25,22,29,16.60
2014,07,25,22,30,16.60
2014,07,25,22,31,16.60
2014,07,25,22,32,16.60
2014,07,25,22,33,16.60
2014,07,25,22,34,16.60
2014,07,25,22,35,16.60
2014,07,25,22,36,16.60
2014,07,25,22,37,16.60
2014,07,25,22,38,16.50
2014,07,25,22,39,16.40
2014,07,25,22,40,16.40
2014,07,25,22,41,16.40
2014,07,25,22,42,16.40
2014,07,25,22,43,16.40
2014,07,25,22,44,16.40
2014,07,25,22,45,16.40
2014,07,25,22,46,16.40
2014,07,25,22,47,16.40
2014,07,25,22,48,16.30
2014,07,25,22,49,16.30
2014,07,25,22,50,16.30
2014,07,25,22,51,16.30
2014,07,25,22,52,16.30
2014,07,25,22,53,16.20
2014,07,25,22,54,16.20
2014,07,25,22,55,16.20
2014,07,25,22,56,16.10
2014,07,25,22,57,16.10
2014,07,25,22,58,16.10
2014,07,25,22,59,16.10
2014,07,25,23,00,16.10
2014,07,25,23,01,16.10
2014,07,25,23,02,16.00
2014,07,25,23,03,15.90
2014,07,25,23,04,15.90
2014,07,25,23,05,15.90
2014,07,25,23,06,15.90
2014,07,25,23,07,15.80
2014,07,25,23,08,15.80
2014,07,25,23,09,15.80
2014,07,25,23,10,15.80
2014,07,25,23,11,15.80
2014,07,25,23,12,15.80
2014,07,25,23,13,15.80
2014,07,25,23,14,15.70
2014,07,25,23,15,15.70
2014,07,25,23,16,15.60
2014,07,25,23,17,15.50
2014,07,25,23,18,15.50
2014,07,25,23,19,15.50
2014,07,25,23,20,15.40
2014,07,25,23,21,15.40
2014,07,25,23,22,15.30
2014,07,25,23,23,15.30
2014,07,25,23,24,15.30
2014,07,25,23,25,15.30
2014,07,25,23,26,15.30
2014,07,25,23,27,15.20
2014,07,25,23,28,15.20
2014,07,25,23,29,15.20
2014,07,25,23,30,15.20
2014,07,25,23,31,15.10
2014,07,25,23,32,15.10
2014,07,25,23,33,15.10
2014,07,25,23,34,15.10
2014,07,25,23,35,15.00
2014,07,25,23,36,15.00
2014,07,25,23,37,15.00
2014,07,25,23,38,15.00
2014,07,25,23,39,14.90
2014,07,25,23,40,14.90
2014,07,25,23,41,14.90
2014,07,25,23,42,14.90
2014,07,25,23,43,14.90
2014,07,25,23,44,14.90
2014,07,25,23,45,14.90
2014,07,25,23,46,14.80
2014,07,25,23,47,14.80
2014,07,25,23,48,14.80
2014,07,25,23,49,14.80
2014,07,25,23,50,14.80
2014,07,25,23,51,14.80
2014,07,25,23,52,14.80
2014,07,25,23,53,14.80
2014,07,25,23,54,14.80
2014,07,25,23,55,14.80
2014,07,25,23,56,14.80
2014,07,25,23,57,14.70
2014,07,25,23,58,14.70
2014,07,25,23,59,14.70
